Wind_Speed
15 18 19 19 17 14 12 11 10 9 8 8 8 7 7 6 5 4 3 4 4 5 5 6 6 6 6 5 6 8 9 10 11 11 11 12 12 11 11 11 11 10 10 10 10 11 11 11 10 10 10 10 10 9 9 9 9 9 9 9 9 9 10 10 9 9 10 11 13 14 15 15 15 16 17 16 15 16 17 19 21 22 22 22 22
16 18 19 17 15 13 11 11 9 9 8 8 8 7 7 6 5 3 1 2 3 5 8 9 9 8 8 8 8 9 10 11 11 11 11 11 11 11 10 9 9 9 9 9 10 10 9 9 9 9 9 9 9 8 8 8 9 10 10 10 10 10 10 10 9 9 10 12 14 15 15 15 16 17 17 16 16 17 19 21 22 23 23 23 22
17 17 16 15 13 12 11 10 9 9 8 8 8 7 6 5 4 3 2 0 1 2 6 9 11 12 12 11 10 10 10 11 11 10 9 9 9 9 9 9 9 9 9 9 9 9 9 9 9 9 8 8 8 8 8 8 9 10 11 11 11 11 10 10 10 10 11 12 13 14 15 15 17 17 17 16 17 19 20 22 23 24 24 23 21
16 15 14 13 12 12 10 9 8 8 8 7 7 6 5 4 3 3 2 1 2 1 2 6 10 13 12 11 10 9 9 9 8 7 7 7 8 8 9 10 10 10 9 8 8 8 8 9 9 9 9 8 8 8 8 9 9 10 11 11 11 11 10 10 10 11 12 13 13 14 15 16 17 17 17 18 20 21 22 22 24 25 24 22 19
15 14 13 12 12 11 9 8 8 7 6 5 5 4 3 2 2 2 2 1 2 1 3 4 8 10 11 10 9 8 7 7 7 6 5 6 7 8 8 9 9 9 8 7 7 7 7 8 8 9 9 8 8 9 10 9 9 10 11 11 11 11 11 11 11 12 12 13 14 15 17 17 17 18 18 20 21 22 23 24 25 25 23 20 19
14 12 12 11 11 10 8 8 7 6 4 4 4 4 2 1 1 1 1 1 0 2 5 6 8 9 10 9 8 7 6 5 5 6 5 4 4 6 6 6 7 8 8 7 6 6 7 7 8 8 9 9 8 8 9 9 8 9 11 12 11 10 11 12 12 13 13 14 15 17 17 17 17 18 20 21 22 23 24 26 26 24 20 18 18
11 11 11 11 10 9 8 7 6 5 4 4 4 2 1 2 2 1 1 1 0 3 5 7 8 8 8 7 6 5 5 4 3 4 4 4 4 4 5 6 6 6 6 6 6 6 6 7 8 9 9 9 9 9 9 9 9 9 11 12 10 10 11 12 12 13 13 15 17 17 17 17 18 19 20 22 23 25 25 25 23 20 17 17 17
10 11 11 10 9 8 7 7 5 4 4 3 3 2 2 3 3 2 1 1 1 4 6 7 6 6 5 4 3 3 3 3 2 3 4 5 5 5 5 6 7 8 7 6 6 6 7 8 8 8 9 9 9 8 8 10 10 10 11 11 9 10 10 11 12 13 14 16 17 17 17 17 19 20 22 23 24 24 23 21 18 16 15 16 17
11 12 11 10 9 8 7 6 5 4 3 3 2 3 3 3 3 3 1 1 3 6 7 7 6 5 4 2 1 1 3 3 3 4 5 6 7 7 7 8 9 10 10 8 7 8 9 10 9 9 8 8 8 8 9 10 11 10 11 10 8 9 10 11 12 14 16 16 16 17 18 19 20 22 23 23 22 21 19 16 14 14 15 17 18
12 12 11 10 9 8 8 6 5 4 3 3 4 4 4 3 3 3 2 3 5 7 7 7 6 5 5 4 3 2 1 2 4 5 5 7 8 9 9 11 11 11 11 10 9 9 10 11 11 11 10 9 8 9 10 11 11 11 10 8 7 8 10 12 13 14 15 15 17 18 19 20 21 21 20 19 18 16 14 13 14 16 17 17 18
12 12 12 10 9 8 7 6 4 4 4 4 5 5 5 4 4 3 2 3 5 5 5 6 6 5 5 4 4 4 2 3 5 5 5 7 9 9 9 9 10 10 10 11 10 9 10 11 11 12 13 11 11 11 11 11 11 10 9 7 6 8 10 12 12 13 15 16 18 19 19 19 19 18 16 16 14 13 12 13 15 17 17 17 18
12 12 12 10 10 9 8 6 5 5 5 5 6 6 5 5 4 4 3 2 3 4 4 5 6 6 4 3 4 4 4 5 5 5 6 8 8 8 8 9 10 11 11 11 9 9 10 11 12 13 14 13 12 11 11 11 11 10 8 6 7 8 10 11 12 14 16 17 18 19 19 18 16 15 14 13 11 11 13 14 17 17 16 17 18
13 13 12 11 11 10 8 7 6 6 6 6 6 6 6 6 5 4 3 3 3 3 3 4 6 6 5 3 4 4 5 5 5 6 7 8 8 8 9 10 11 11 12 10 9 10 12 12 12 13 14 14 13 11 10 10 10 9 7 6 8 9 10 11 12 15 17 17 19 20 19 17 17 16 13 10 10 13 14 16 18 17 16 17 18
13 13 12 12 12 11 9 8 7 7 7 6 7 7 7 6 6 5 4 3 3 3 2 2 3 5 7 6 5 5 6 6 6 7 7 8 8 9 10 10 11 11 11 11 11 13 13 13 13 14 15 14 13 11 10 9 8 7 6 6 8 9 10 11 13 17 17 18 20 21 19 17 18 15 9 9 12 15 16 17 18 17 17 18 18
11 12 13 12 12 11 10 8 8 7 7 7 7 7 7 6 6 6 6 5 4 3 3 2 2 3 7 7 6 7 7 7 8 8 8 9 8 8 9 9 10 10 11 11 12 13 13 13 14 15 16 14 12 12 11 9 6 5 4 6 8 8 9 11 16 18 18 19 22 22 19 19 19 13 8 10 13 16 17 18 18 17 18 18 17
12 12 13 12 11 11 10 9 9 8 7 7 7 8 7 6 6 6 6 5 4 4 3 3 2 3 4 5 5 6 6 7 8 8 8 8 7 7 8 8 8 9 9 10 11 11 12 13 14 14 13 11 11 11 10 8 6 3 3 6 7 8 9 13 16 18 18 20 22 22 20 19 19 13 9 11 14 16 17 18 18 17 18 18 17
13 13 12 12 12 12 10 9 9 9 8 7 8 8 6 6 6 5 6 5 4 4 3 3 3 3 3 3 4 4 4 6 8 7 6 7 7 8 8 9 9 9 10 11 11 11 12 13 12 10 9 9 9 9 8 7 5 3 3 7 8 8 10 13 16 17 18 20 22 22 21 19 19 15 11 12 15 17 16 18 18 17 18 18 17
14 13 12 12 12 13 12 10 10 10 10 9 9 8 7 6 5 5 6 5 5 5 5 5 4 4 3 3 3 3 4 6 7 7 7 6 5 7 9 9 10 11 12 12 12 12 12 12 9 7 7 7 7 6 6 5 3 2 3 6 8 8 10 12 14 17 18 19 21 23 22 19 18 17 15 14 16 17 16 17 18 16 17 18 17
14 14 13 12 12 13 13 12 11 11 11 11 10 10 9 7 6 5 5 6 6 6 5 5 5 5 4 4 3 3 4 5 6 9 11 8 6 7 8 10 11 12 11 11 12 12 11 10 7 6 7 6 4 4 5 4 3 3 4 5 7 8 10 11 12 15 18 19 20 22 22 20 18 17 17 15 16 17 16 17 17 16 17 17 17
14 14 13 13 12 12 13 13 12 12 12 11 10 10 10 9 7 6 6 6 6 7 7 6 6 5 5 5 4 4 4 5 7 8 10 11 10 9 9 10 10 11 11 12 13 14 12 9 6 6 5 4 4 4 5 5 5 5 5 6 6 7 9 10 11 14 17 18 20 21 22 21 18 16 17 16 16 16 15 16 18 16 16 16 16
13 13 13 13 12 12 12 13 13 13 12 12 11 10 10 9 8 7 7 7 6 7 7 7 7 6 6 6 5 5 5 6 7 8 9 12 13 13 13 13 12 11 11 13 15 15 14 9 5 5 4 4 5 6 7 8 7 7 7 7 6 7 9 10 10 12 15 17 19 20 21 21 19 16 15 16 17 16 14 15 18 17 16 16 15
13 13 13 13 13 12 12 13 13 13 13 13 12 11 10 9 9 9 8 7 7 7 7 7 8 8 8 8 7 7 7 6 7 8 10 12 14 15 14 15 16 15 13 15 16 15 13 9 5 4 3 4 6 7 9 9 9 9 9 7 6 7 9 9 10 11 14 17 17 18 19 20 19 16 13 14 15 15 13 14 17 17 16 16 15
13 13 13 13 13 13 13 12 12 13 13 14 13 11 11 10 10 10 9 8 8 8 7 7 8 8 8 8 7 6 6 7 7 8 10 12 14 14 13 13 15 16 15 16 15 14 12 10 7 5 5 6 7 8 10 10 11 11 10 8 8 8 9 10 10 12 14 16 15 17 18 19 18 16 12 12 14 14 12 13 15 16 16 16 16
14 14 13 12 12 12 12 12 12 13 13 13 13 12 12 11 10 9 9 8 8 8 7 7 7 8 7 7 7 7 6 7 8 8 10 11 13 13 13 13 14 15 16 16 15 13 12 11 9 7 7 8 8 10 11 12 12 13 12 9 9 9 9 10 12 13 14 14 14 16 18 18 17 15 12 11 12 12 11 12 14 15 16 16 15
14 13 13 11 11 11 12 12 12 13 13 12 12 12 12 12 10 8 8 7 8 8 7 7 7 7 8 8 8 8 8 8 9 9 11 12 13 13 13 13 15 16 15 15 15 14 12 11 10 9 9 10 11 12 13 13 13 14 12 11 10 9 9 10 12 13 14 13 13 15 18 18 17 16 12 10 11 10 10 11 13 14 15 15 15
12 12 11 11 11 11 11 11 11 12 12 12 11 11 13 12 11 10 9 8 8 8 8 7 7 7 8 9 9 8 8 9 10 11 12 12 13 14 14 15 16 16 15 15 15 14 13 12 11 11 11 11 11 12 13 14 15 14 13 11 10 9 9 11 13 14 13 11 12 15 17 18 18 16 13 10 9 9 9 10 11 12 14 14 14
10 10 10 11 11 11 11 11 10 11 11 11 11 11 12 13 12 12 11 9 9 9 9 9 8 8 9 10 9 9 9 11 11 11 12 12 13 13 14 15 17 17 17 17 15 13 13 13 12 11 12 12 12 13 14 15 15 15 14 12 10 9 10 11 13 14 13 11 12 14 17 18 18 18 15 11 9 8 8 9 10 11 12 13 13
10 10 10 11 11 11 11 10 9 9 10 10 10 11 12 12 12 12 11 10 11 11 10 10 10 10 10 10 11 11 11 12 12 12 11 12 12 12 12 14 16 18 19 19 17 14 13 13 13 13 12 12 12 13 14 15 15 15 14 13 12 11 11 13 14 14 13 13 13 14 16 18 19 19 17 13 9 8 7 7 9 10 10 11 12
11 10 10 12 12 11 11 10 9 8 9 10 11 12 12 12 12 12 12 12 13 13 11 11 11 11 11 11 12 13 13 13 13 12 13 13 13 13 14 14 15 17 18 20 20 17 13 12 13 14 13 13 13 14 14 14 14 14 14 13 13 13 13 14 14 15 14 14 14 15 16 17 18 19 18 15 11 8 7 7 8 9 9 10 10
12 11 11 12 12 11 11 11 10 9 9 10 11 12 13 13 13 13 12 12 13 12 11 12 12 12 13 12 12 13 13 13 13 14 14 14 14 14 15 14 14 15 15 18 19 17 14 12 13 14 14 14 14 15 14 14 14 14 14 13 13 13 14 14 15 15 16 15 14 15 16 17 18 19 18 16 13 10 8 7 7 8 8 8 9
13 12 12 12 12 12 12 12 11 10 11 11 12 13 13 13 13 13 12 12 13 12 11 12 12 13 13 12 12 12 12 12 13 14 15 14 14 13 13 13 13 13 13 15 18 16 14 14 13 13 15 15 15 15 15 14 14 14 14 14 13 13 14 14 15 15 16 15 15 16 16 16 18 18 18 17 15 12 9 7 7 7 7 7 7
13 13 12 12 13 13 13 13 12 12 12 13 14 14 14 14 13 12 12 12 13 12 11 12 12 12 12 12 12 13 13 14 14 15 15 14 13 12 12 12 12 12 13 13 16 17 14 14 14 14 15 15 15 16 16 14 13 14 15 15 14 14 15 14 14 15 16 16 17 18 17 16 17 18 17 16 15 14 12 8 7 7 7 6 6
15 15 14 12 12 14 15 15 14 14 14 15 17 16 15 14 12 12 12 12 12 11 11 11 11 11 11 11 12 13 13 14 14 14 14 12 12 11 11 11 11 11 12 12 14 17 14 12 14 14 15 16 15 16 16 15 14 13 14 15 15 14 14 15 15 16 16 17 18 19 18 17 17 17 17 16 14 13 13 11 7 6 7 7 6
15 15 15 14 16 18 19 18 17 17 17 18 18 17 16 16 14 12 12 12 11 11 11 11 11 11 12 12 12 12 12 12 12 12 12 11 11 11 10 11 10 9 10 11 13 16 15 14 14 14 15 16 15 15 16 17 16 14 13 13 14 14 14 14 15 16 17 18 18 18 18 17 17 17 17 15 14 11 12 13 11 7 7 7 7
15 15 16 18 19 19 18 17 16 16 17 18 18 17 17 17 14 13 12 11 11 10 10 10 11 11 12 11 11 11 11 11 10 10 11 10 10 10 10 10 10 9 10 11 12 14 16 16 16 16 16 15 15 15 16 16 16 15 14 13 14 14 13 13 14 15 16 16 17 17 17 16 17 17 16 15 14 12 11 12 13 10 7 7 7
14 16 18 18 18 18 18 17 16 15 15 17 17 16 16 15 14 13 12 11 11 11 11 11 11 11 11 11 11 10 10 9 9 9 9 10 10 10 10 10 11 11 10 11 11 13 16 18 19 18 18 17 15 15 16 17 16 15 14 14 14 13 13 14 14 14 15 15 15 16 16 16 16 16 16 15 14 12 11 11 13 12 8 6 7
15 18 19 18 17 18 18 17 16 16 15 15 15 15 15 15 15 15 13 12 13 13 12 11 11 11 11 11 10 10 9 8 8 9 9 10 10 10 10 11 12 12 12 12 13 15 17 20 21 20 19 19 17 16 17 19 19 18 16 15 14 14 13 14 14 15 15 15 15 16 16 16 16 15 15 14 13 12 12 11 11 12 10 7 6
17 20 20 19 19 19 18 17 16 16 15 15 15 16 16 16 17 17 15 15 16 15 12 11 12 11 11 11 10 10 10 10 10 10 11 11 10 10 10 11 12 13 13 14 16 17 19 21 22 22 21 20 20 19 19 20 22 22 21 20 18 16 15 15 16 16 16 17 17 17 17 17 15 14 13 12 12 12 12 11 10 10 11 9 7
19 20 20 20 20 20 19 18 17 16 15 15 15 17 17 17 18 17 16 17 17 15 11 11 12 12 12 12 11 11 12 12 12 12 12 11 10 11 11 12 13 14 15 16 17 18 20 21 22 23 23 23 22 22 21 22 23 23 24 24 23 19 18 18 18 18 18 19 19 18 18 17 16 14 12 12 12 12 13 12 10 9 10 10 9
21 21 20 20 19 19 18 18 17 16 16 15 15 16 17 17 17 17 16 16 16 14 12 11 13 13 13 13 13 13 13 12 12 11 11 11 11 12 13 13 15 15 16 17 17 18 20 22 23 24 25 25 24 24 24 24 24 24 24 24 24 23 21 20 20 20 20 20 20 19 18 17 16 15 14 13 13 14 14 13 12 10 10 10 10
23 22 21 19 18 18 18 18 18 17 16 15 15 15 16 17 17 17 16 15 15 14 12 12 13 13 14 14 13 13 13 11 10 10 10 11 12 13 14 15 17 18 18 19 20 21 22 23 25 25 26 26 26 26 25 24 24 24 23 23 24 24 24 24 22 21 20 21 21 20 19 18 17 16 16 16 15 15 15 14 13 12 11 11 11
22 22 21 20 20 19 19 19 18 18 17 16 15 14 15 16 17 17 16 16 15 15 14 13 14 14 14 14 13 12 12 10 10 11 12 13 14 15 16 18 19 20 21 22 22 23 23 24 24 24 23 24 24 24 24 23 23 23 23 24 24 25 25 26 25 22 21 22 23 23 21 20 19 18 18 18 17 17 16 15 14 13 12 12 12
21 21 21 22 21 20 20 20 20 19 17 16 15 15 15 16 17 17 16 16 16 16 17 16 16 17 16 14 13 11 11 10 11 13 14 15 17 17 18 19 21 22 23 24 24 23 23 23 22 21 20 21 22 23 23 24 26 26 26 26 26 26 25 26 28 26 24 23 24 25 23 21 21 21 21 21 20 19 17 16 15 14 13 13 13
21 20 21 22 21 20 20 20 19 18 17 16 16 15 16 16 17 17 17 17 17 18 19 19 19 19 17 14 13 11 11 12 13 14 16 17 18 18 19 20 21 22 22 22 22 21 21 21 20 19 19 21 22 23 24 25 26 27 26 26 26 25 24 25 26 25 22 21 23 26 26 23 22 23 24 23 22 20 18 18 17 16 15 13 13
21 21 21 20 20 19 19 18 18 17 17 17 17 17 17 18 18 19 19 19 20 21 21 19 19 19 18 15 13 12 12 13 14 15 16 17 17 18 19 19 19 19 18 18 17 18 18 18 19 19 19 20 21 21 21 22 23 23 23 23 23 23 22 22 23 22 21 23 26 29 28 25 23 24 25 24 23 21 19 19 18 17 16 14 13
22 22 21 21 20 20 19 18 19 18 18 18 18 18 18 19 20 21 21 22 22 23 22 20 18 19 18 16 15 15 14 15 15 16 16 16 16 16 16 15 15 15 14 14 14 15 15 15 16 17 17 17 18 18 19 19 19 18 18 19 20 20 19 19 19 18 18 20 22 24 25 23 21 22 23 22 21 22 21 21 20 18 17 16 15
24 24 24 23 22 21 21 20 20 20 19 19 19 19 19 20 21 21 23 25 24 23 23 20 18 18 18 17 16 16 15 15 15 15 14 14 14 13 13 12 12 12 11 11 11 11 12 12 13 13 14 15 17 18 19 18 17 14 14 16 17 17 17 18 17 16 16 16 17 18 21 21 20 21 22 21 20 22 22 21 20 19 19 18 17
26 26 24 24 23 22 21 21 21 21 21 21 21 20 21 21 22 23 24 25 25 24 24 22 19 19 20 18 15 13 13 14 13 12 11 11 10 9 9 8 8 8 8 8 9 10 11 12 11 12 13 15 16 16 16 17 16 13 12 14 15 16 17 18 17 17 16 16 16 16 18 19 19 21 22 22 22 21 20 20 20 20 20 19 17
26 24 23 23 23 21 21 23 23 23 23 23 22 22 22 23 24 24 25 26 25 24 24 23 22 21 19 16 12 11 11 10 9 7 7 6 5 5 4 5 5 6 7 8 9 10 11 11 10 10 11 12 13 14 14 15 16 13 12 13 14 15 16 17 18 17 14 13 14 14 15 17 18 19 20 20 20 19 17 17 20 20 18 16 15
24 22 22 23 22 20 21 24 24 23 23 23 24 25 25 25 26 26 26 27 26 25 25 24 22 20 17 14 10 8 7 5 4 2 2 2 3 4 6 6 5 6 7 8 9 9 10 10 9 9 9 10 11 12 14 15 16 15 15 16 17 16 16 18 18 16 13 14 17 16 16 16 16 17 18 16 15 14 12 10 14 16 16 14 13
22 20 19 21 22 21 22 23 22 22 24 24 25 27 27 28 28 26 25 26 26 26 27 25 23 20 16 13 10 5 2 2 2 3 3 4 5 7 8 8 9 10 11 10 9 9 8 9 9 8 9 10 12 13 14 15 15 16 17 18 18 18 19 20 20 18 17 19 21 20 18 17 17 18 17 16 14 13 13 12 9 11 13 12 9
Wind_Direction
138 139 139 141 141 139 136 131 125 118 119 119 121 118 110 103 99 112 150 184 151 94 104 123 123 119 103 97 103 105 109 111 110 106 100 93 85 78 74 71 67 65 69 70 67 66 64 59 54 51 49 45 42 40 37 33 28 21 15 9 3 359 354 350 344 337 329 322 320 319 319 318 317 315 312 309 307 307 309 310 310 309 309 309 306
139 140 141 144 144 142 138 132 126 125 128 131 131 123 111 103 97 104 114 178 144 87 88 99 104 109 107 102 102 107 112 110 103 96 92 85 76 71 68 62 59 60 67 72 68 64 59 53 46 41 38 35 32 29 26 20 15 10 5 1 358 355 351 346 340 332 325 320 318 317 316 315 313 311 309 307 305 306 307 307 307 307 307 306 305
140 142 144 147 147 144 140 135 134 134 135 135 132 120 113 112 101 95 74 101 190 102 89 90 99 106 103 97 97 103 107 102 95 89 84 78 71 67 63 58 58 61 67 72 67 60 54 47 40 32 25 22 21 18 13 7 2 358 354 352 350 349 347 342 335 330 325 322 320 317 315 312 309 308 308 307 307 307 306 306 306 307 307 306 304
144 145 147 149 149 145 142 141 141 138 135 133 129 120 120 119 91 74 68 330 279 209 118 93 100 107 103 97 97 100 100 93 83 80 76 71 72 68 62 60 61 61 63 65 56 48 44 41 35 27 19 11 10 7 2 357 353 350 346 344 342 342 340 334 329 327 326 324 321 317 313 310 308 307 307 307 307 308 307 308 309 309 308 306 303
148 149 151 153 152 149 148 147 144 140 136 137 140 132 122 101 48 42 44 331 309 188 159 113 102 104 101 97 98 99 99 87 74 78 83 79 73 64 61 60 57 51 47 46 41 34 27 21 17 16 14 6 1 358 354 350 346 344 344 339 335 334 331 326 323 320 321 321 318 314 311 309 307 307 307 308 309 309 309 310 311 311 309 306 302
152 154 156 156 156 158 158 153 146 143 145 153 155 139 124 112 46 48 31 324 309 154 153 125 108 105 99 95 96 95 93 86 74 74 79 83 70 52 46 42 38 36 32 30 28 21 8 359 352 351 356 356 353 352 350 345 340 340 343 339 331 326 322 320 319 317 316 316 316 313 310 308 307 308 310 310 310 309 309 310 312 312 309 306 304
155 161 162 160 162 168 167 159 150 149 153 153 150 148 177 186 166 146 56 344 136 148 156 139 119 115 107 97 97 94 86 84 69 51 48 57 51 30 17 9 3 358 2 11 10 0 351 344 336 331 332 339 342 343 344 340 337 336 339 338 332 323 318 319 320 319 316 315 316 313 310 309 308 309 310 310 309 308 309 311 313 313 311 309 309
167 170 169 167 170 176 172 164 157 155 153 147 152 188 207 198 189 180 128 349 184 153 159 163 148 139 134 113 100 85 65 53 17 4 4 9 9 359 352 346 337 328 320 321 331 331 331 332 328 322 316 320 329 330 328 330 332 332 333 335 332 326 322 322 322 319 317 317 316 313 311 310 308 309 310 310 309 309 311 316 318 317 315 315 316
177 176 175 176 180 180 174 168 162 158 156 159 184 201 197 196 197 186 139 93 153 151 149 167 179 179 179 175 160 87 41 16 337 333 334 339 343 339 333 327 323 324 317 301 297 302 313 321 317 311 306 304 313 316 312 319 325 327 330 332 331 332 330 326 322 320 320 318 316 314 312 311 310 311 311 311 311 313 318 325 325 322 320 321 321
182 181 182 185 185 180 175 171 165 164 171 188 200 197 192 189 187 187 140 101 138 154 154 165 184 210 223 225 233 238 28 6 334 317 317 328 333 329 326 322 318 320 316 303 294 292 303 315 314 312 313 306 304 308 309 315 318 320 328 333 333 334 331 327 325 325 323 322 320 317 316 314 315 315 316 317 318 320 329 335 329 325 325 327 328
188 186 189 190 187 182 178 175 172 179 185 194 199 195 197 196 183 185 158 107 123 149 164 172 187 226 243 243 254 252 253 309 317 305 308 321 323 324 325 322 318 317 313 304 298 298 307 314 316 321 324 318 312 312 314 315 311 314 326 331 332 333 332 332 332 331 330 329 326 323 322 322 322 324 325 326 327 332 341 338 330 329 330 332 335
194 193 195 195 190 185 182 183 188 191 188 193 199 197 203 204 191 191 187 142 128 139 160 176 194 227 244 258 260 253 267 293 307 299 300 314 315 315 314 315 320 320 315 307 302 309 319 318 316 323 326 323 318 313 314 314 307 312 325 326 330 336 338 340 338 337 336 333 330 330 332 334 335 337 335 335 339 344 343 338 335 335 335 337 340
199 197 200 200 193 188 188 191 194 192 192 201 206 205 207 206 199 203 203 186 174 165 168 181 202 222 216 231 262 262 271 281 300 305 301 306 309 300 301 313 324 323 318 310 302 309 320 320 315 321 326 326 326 323 317 313 310 317 325 324 332 341 346 345 343 341 340 338 338 340 344 346 345 343 342 348 352 347 344 343 342 341 340 342 344
202 202 206 206 196 194 198 199 198 192 197 211 215 213 210 206 206 218 224 219 213 211 216 196 214 224 212 226 257 261 266 263 275 296 301 304 302 294 297 311 320 322 319 309 300 302 309 311 310 316 322 325 331 336 328 315 314 324 323 326 337 347 352 351 350 347 345 346 347 349 352 353 350 349 353 0 356 350 349 350 348 345 344 346 347
205 209 211 211 206 205 207 209 205 195 197 213 222 218 212 209 215 228 233 238 245 255 281 273 249 228 221 236 256 262 269 267 268 278 291 303 308 308 310 317 322 324 323 316 307 301 300 303 306 311 317 320 327 335 330 318 317 323 325 340 348 354 359 359 357 354 352 355 355 355 357 356 354 356 3 2 357 353 353 354 352 349 348 349 349
211 216 216 218 219 218 218 219 215 205 202 215 225 222 218 219 223 232 239 244 251 259 281 288 273 246 240 253 263 273 283 284 285 281 284 299 311 315 318 325 330 332 332 330 321 309 303 303 305 309 314 318 325 331 329 320 314 313 343 2 2 3 5 4 2 359 359 2 1 360 1 359 357 358 357 356 355 353 353 355 355 352 350 351 351
215 218 218 222 226 229 230 228 224 219 216 220 223 224 226 228 228 237 241 246 257 261 268 283 291 272 265 279 281 290 303 305 305 298 289 299 306 310 312 318 326 333 336 335 328 320 315 312 310 309 312 320 329 335 334 324 309 307 0 12 10 6 3 4 6 3 3 6 5 1 0 359 357 356 349 347 350 351 352 356 357 356 353 352 352
217 218 220 226 228 232 236 234 229 226 224 224 225 230 236 236 241 244 236 239 254 266 273 277 288 289 285 297 297 302 316 320 321 319 311 308 314 317 317 320 327 334 338 335 330 325 325 326 322 310 308 320 336 342 341 328 306 317 1 12 10 0 356 4 8 4 4 7 6 2 358 356 354 352 348 343 345 348 351 357 359 358 357 355 355
217 220 225 229 229 232 235 233 231 231 230 228 230 238 242 242 250 248 232 237 247 256 271 275 281 291 293 291 285 287 306 321 331 331 325 320 328 332 327 328 332 337 342 342 339 335 332 330 326 315 310 316 329 339 344 329 303 317 341 357 5 358 353 3 7 4 3 4 5 2 357 353 349 348 347 344 344 346 348 357 1 360 359 360 358
217 221 226 228 229 229 230 231 232 234 234 233 235 239 242 245 252 249 238 244 249 251 262 266 269 280 284 279 274 281 300 315 324 330 326 320 325 334 333 330 332 338 341 343 345 343 339 331 317 315 314 309 305 312 336 336 315 315 322 334 357 357 351 359 3 2 1 360 1 360 355 352 347 344 345 344 345 345 346 356 2 1 1 3 3
218 220 224 227 229 227 227 229 232 233 233 235 236 236 240 244 248 246 241 247 252 253 259 259 256 262 267 266 271 284 298 312 320 324 321 319 324 330 333 330 331 340 342 342 343 343 345 343 323 310 307 302 299 301 321 331 324 321 322 324 342 350 345 352 359 357 355 356 358 357 354 352 348 343 342 343 344 343 345 353 0 3 2 4 7
222 223 224 228 230 228 227 230 231 231 233 234 235 237 242 242 242 241 241 247 252 252 256 256 255 260 265 268 276 290 302 315 326 328 324 322 322 325 332 332 331 337 340 339 340 342 346 351 334 301 295 309 309 308 319 329 329 331 331 319 318 334 337 341 351 350 348 352 357 356 354 352 350 346 343 342 342 341 343 353 359 3 3 4 8
225 224 222 226 229 228 228 232 232 231 233 234 236 241 241 238 240 243 245 253 256 253 256 260 262 265 268 272 279 291 306 319 326 328 324 322 319 319 326 328 325 330 336 337 340 342 344 345 333 307 306 320 321 319 325 331 332 334 336 318 301 316 327 332 340 343 343 349 355 355 354 353 352 351 347 343 342 338 340 351 359 4 5 4 8
222 220 216 218 224 227 229 233 233 232 235 236 239 241 238 238 246 252 255 258 259 261 266 270 271 267 263 267 278 286 295 308 313 312 312 310 307 308 315 321 320 324 332 336 341 344 340 337 331 320 317 320 322 325 328 330 330 332 333 319 302 305 314 323 331 335 338 346 354 355 354 355 355 355 353 346 343 337 335 348 358 5 8 6 8
221 219 215 216 222 226 229 233 235 236 239 240 242 242 239 242 250 259 264 260 258 264 270 275 272 266 260 259 267 278 286 293 297 300 303 301 299 301 307 312 314 318 327 334 340 343 341 337 335 333 329 327 326 328 329 328 328 330 329 318 306 303 307 319 326 331 336 345 352 354 355 356 355 356 356 350 343 336 331 341 354 4 10 10 8
226 224 221 222 227 229 232 236 238 241 245 247 246 244 244 248 253 261 264 260 262 272 276 272 267 265 263 260 261 271 282 287 289 297 303 300 298 301 304 308 310 313 320 327 333 339 341 341 341 338 336 334 332 331 331 330 327 326 324 315 305 299 306 319 325 328 334 343 350 352 354 355 354 353 354 350 342 335 326 334 348 359 10 14 10
232 232 228 227 231 234 236 239 240 243 248 251 250 248 250 255 259 263 265 264 269 277 280 274 269 268 265 260 261 267 277 283 287 298 304 302 301 303 305 310 312 313 317 319 323 332 337 338 338 338 336 333 331 331 332 330 325 321 319 313 303 298 303 315 320 322 328 337 344 349 351 353 352 351 350 347 340 331 321 325 339 352 6 16 15
237 237 233 230 232 236 237 237 241 247 251 254 256 257 258 260 262 264 265 269 272 274 278 276 274 275 270 263 263 267 274 281 288 298 306 305 304 301 303 310 313 315 317 316 318 324 331 334 334 334 335 333 333 335 334 331 325 317 313 309 303 299 300 308 314 317 322 330 338 344 349 350 351 351 350 347 340 328 317 316 327 340 356 11 17
239 239 235 232 234 237 233 230 238 252 259 262 263 262 261 261 262 264 265 270 272 273 276 275 274 275 271 268 268 268 271 276 284 295 302 304 303 301 302 305 310 312 310 309 312 318 326 333 332 331 335 337 337 337 335 333 328 320 313 307 303 300 298 302 309 314 318 323 331 339 345 348 348 349 350 351 347 333 315 308 315 327 342 1 13
242 243 240 236 237 238 233 231 240 255 264 267 266 263 261 262 263 265 267 270 271 272 275 275 273 272 272 274 273 270 271 274 282 291 298 304 308 308 306 307 310 309 303 301 304 312 323 329 331 333 334 337 338 335 333 333 330 324 318 311 305 300 298 301 307 312 316 320 326 333 340 345 346 347 348 351 353 345 324 307 306 313 327 346 3
240 244 246 245 246 244 242 241 245 253 260 266 268 261 257 260 264 266 267 268 268 267 268 268 267 267 271 275 272 268 271 275 281 288 295 304 309 310 310 310 309 306 303 299 299 308 323 327 329 332 330 331 336 334 331 330 327 322 319 315 308 303 301 304 308 312 316 319 323 328 333 338 342 343 345 347 353 353 339 312 299 301 312 328 346
236 238 241 247 252 251 250 251 254 261 266 269 266 257 253 258 265 267 264 260 261 263 263 263 265 268 271 274 272 270 273 276 280 286 294 301 305 305 306 308 309 307 305 301 298 306 319 323 323 327 326 326 332 332 328 327 325 320 317 315 312 308 304 303 305 309 315 319 321 322 325 329 334 338 340 342 348 356 354 335 302 291 297 309 324
235 234 236 244 251 250 247 248 251 254 257 259 258 252 250 253 256 258 257 253 255 262 263 260 262 265 269 275 278 277 276 277 282 288 293 297 298 300 300 304 311 310 306 303 302 306 314 319 319 322 322 321 326 329 326 326 327 323 319 317 314 311 307 303 302 305 310 315 317 317 318 322 325 330 335 337 342 354 3 0 338 296 288 293 303
238 239 240 241 243 242 239 239 241 242 245 252 255 254 251 251 246 240 242 248 253 261 264 263 262 264 269 274 276 278 280 281 284 287 290 291 292 294 295 300 308 309 305 304 305 306 309 314 318 319 320 320 324 329 328 328 331 331 329 325 321 316 310 305 303 304 307 311 314 314 314 317 319 323 328 331 335 344 355 2 359 329 293 285 288
240 240 240 240 242 244 244 245 248 250 252 255 258 259 253 252 249 236 230 242 256 263 268 271 272 271 270 270 271 277 280 281 282 283 285 285 286 288 290 294 298 298 298 300 302 305 307 312 317 319 321 322 324 327 327 326 328 329 330 329 326 323 320 315 312 310 311 313 315 315 314 314 313 316 320 323 327 332 338 351 358 349 316 290 282
232 234 239 243 247 251 253 255 258 263 263 259 261 262 254 250 254 246 236 242 255 264 270 273 274 272 268 265 266 271 273 273 274 276 277 278 280 284 285 286 288 290 293 295 297 299 303 308 314 318 319 319 320 323 323 320 318 320 321 322 321 321 321 321 320 319 318 318 318 317 315 312 309 310 314 316 319 323 328 341 354 353 338 310 290
225 234 240 245 251 255 255 256 260 266 267 262 260 259 252 248 251 249 244 245 251 256 261 267 269 266 263 260 257 259 263 263 263 265 267 271 277 283 287 289 290 290 292 291 292 295 299 305 310 314 317 316 313 315 317 315 311 311 311 310 309 310 312 315 317 319 319 318 318 318 315 311 307 305 306 309 311 315 320 331 346 353 348 332 308
230 238 243 247 250 255 256 255 258 263 264 261 257 253 251 254 253 249 247 250 253 252 252 258 262 258 255 254 251 255 258 258 258 261 267 272 278 287 295 298 297 294 291 290 291 294 298 303 307 311 315 315 311 309 310 311 310 311 312 308 303 300 300 302 306 310 313 312 312 314 315 311 306 301 299 300 303 308 313 319 331 344 349 342 324
235 241 246 249 252 257 261 258 258 261 260 258 257 255 257 260 256 248 246 250 254 255 252 253 254 252 251 251 252 256 258 260 263 267 274 280 284 291 298 301 300 298 296 294 294 295 298 301 304 308 311 311 310 309 308 308 307 308 312 311 308 303 298 298 300 304 308 309 308 309 311 310 304 297 293 292 296 301 307 311 315 325 338 343 336
237 242 245 248 253 259 262 260 260 263 261 258 258 259 260 259 253 246 244 248 253 252 249 252 251 249 248 248 250 255 259 265 271 275 283 288 291 295 298 299 299 299 299 298 298 298 299 300 302 306 307 307 308 308 307 307 306 306 309 311 310 306 302 299 300 305 308 308 307 306 307 307 303 296 291 288 290 296 300 302 305 309 319 332 336
235 240 242 244 249 256 260 261 263 264 263 261 260 261 260 255 251 248 245 245 248 246 245 251 250 243 241 243 246 253 260 268 277 284 291 292 294 297 298 298 297 298 299 301 303 303 303 303 305 307 307 307 307 307 308 309 309 308 308 308 308 306 303 300 300 303 307 307 306 305 306 305 298 292 289 288 289 292 294 295 296 299 303 313 323
230 235 239 242 245 250 256 262 264 263 263 263 260 260 261 255 250 248 244 241 244 245 244 243 239 235 236 240 244 251 260 271 284 291 292 291 293 296 298 299 300 302 304 306 307 307 306 307 307 308 309 309 308 308 309 309 306 304 304 304 303 303 303 302 300 300 304 307 305 304 306 304 295 287 285 287 288 289 288 287 287 289 294 302 312
227 234 241 244 245 248 255 262 263 260 261 262 259 258 258 253 248 245 243 242 244 247 245 239 233 233 236 239 243 250 262 278 289 291 292 292 293 295 297 300 302 305 307 307 307 307 306 305 305 306 305 302 301 302 303 301 299 299 300 300 301 301 303 305 305 306 309 309 307 305 305 303 296 287 282 283 284 284 283 281 280 282 287 294 303
231 238 243 244 244 247 254 258 257 256 258 260 259 258 256 253 249 245 244 245 246 247 246 239 234 235 239 241 244 251 264 279 286 288 289 290 291 293 297 301 304 305 305 305 305 306 306 306 307 307 305 302 302 303 304 303 303 303 303 303 303 304 304 303 304 309 313 314 312 310 306 304 301 296 289 284 280 276 272 269 270 275 278 282 290
237 243 245 244 243 249 254 254 253 254 257 258 258 259 257 254 249 247 245 246 247 248 246 240 237 240 242 241 243 251 264 276 283 285 286 287 290 294 298 301 302 303 302 304 306 309 310 311 312 314 315 315 316 317 316 313 311 310 310 311 313 313 311 305 301 300 302 306 308 307 303 303 306 304 298 290 278 269 266 262 260 265 270 272 276
241 243 243 241 242 248 252 252 253 253 254 256 258 259 259 255 251 249 248 249 252 253 251 245 242 245 245 239 241 252 264 275 281 283 285 289 293 296 299 299 299 300 302 306 309 312 315 317 320 325 330 332 333 333 333 329 325 322 324 330 334 332 328 325 319 313 311 309 307 305 305 310 313 309 306 299 281 266 263 260 255 257 263 265 265
238 236 235 234 236 242 248 249 250 250 250 253 256 258 258 257 254 252 251 250 251 254 256 251 242 240 239 235 240 253 265 274 279 283 288 293 296 298 298 298 300 303 307 313 319 325 332 338 344 351 357 0 359 354 351 351 350 350 347 344 343 338 335 335 334 335 336 328 318 314 315 319 321 315 314 314 295 270 259 254 249 250 257 258 256
233 232 231 233 233 237 243 246 246 248 250 251 254 254 255 256 256 254 254 255 256 258 259 253 242 236 236 236 242 256 269 275 282 288 292 295 296 299 301 306 316 323 331 343 352 358 3 7 15 23 23 21 21 15 6 4 5 6 359 349 343 340 340 338 335 338 341 333 326 325 321 321 323 318 315 317 308 286 266 251 243 243 250 256 261
229 230 233 238 238 235 238 241 241 243 248 251 253 254 253 253 254 253 253 254 255 255 253 247 240 237 236 239 248 260 270 278 287 292 296 302 305 314 338 357 3 9 19 25 26 25 25 25 32 38 31 24 26 27 22 19 20 18 14 10 2 354 354 354 350 350 351 343 338 339 335 332 330 324 319 316 311 303 288 264 247 243 248 259 269
230 234 238 242 240 234 232 236 238 242 247 251 255 257 257 254 252 252 251 249 248 247 245 240 236 232 230 232 239 250 261 273 285 292 325 351 354 25 41 37 36 43 42 39 38 36 34 34 35 32 24 19 23 27 25 25 28 29 29 28 23 14 13 14 9 8 12 8 2 0 359 356 350 343 339 334 328 330 329 298 263 252 256 268 272
230 236 240 239 237 234 233 237 243 250 254 254 254 256 256 254 250 245 242 243 243 239 234 230 226 220 209 199 194 189 183 161 129 102 81 60 51 57 57 53 53 51 43 38 35 29 29 34 32 27 26 27 27 26 22 20 25 29 30 29 26 22 21 20 16 14 17 16 13 11 10 8 5 3 359 355 354 354 354 345 313 278 268 267 260
Height
1574 1575 1576 1577 1577 1578 1579 1579 1579 1579 1580 1579 1579 1579 1579 1579 1579 1579 1578 1578 1578 1578 1578 1577 1577 1577 1577 1577 1577 1576 1576 1576 1576 1577 1577 1578 1578 1578 1578 1578 1578 1577 1577 1577 1577 1577 1577 1577 1576 1576 1576 1575 1575 1575 1574 1574 1573 1573 1572 1571 1570 1569 1569 1567 1566 1565 1564 1563 1562 1561 1560 1558 1557 1556 1554 1553 1552 1550 1549 1548 1546 1545 1543 1542 1540
1575 1576 1577 1578 1578 1579 1579 1580 1580 1580 1580 1580 1580 1580 1580 1580 1580 1579 1579 1578 1578 1578 1578 1577 1577 1577 1577 1577 1577 1577 1577 1577 1578 1578 1579 1579 1579 1579 1579 1579 1578 1578 1578 1578 1578 1578 1577 1577 1577 1576 1576 1575 1575 1575 1574 1574 1573 1572 1572 1571 1570 1569 1568 1567 1566 1564 1563 1562 1561 1560 1558 1557 1556 1554 1553 1552 1550 1549 1548 1546 1544 1542 1541 1539 1538
1576 1577 1578 1578 1579 1579 1580 1580 1580 1580 1580 1580 1580 1580 1581 1581 1580 1580 1580 1579 1579 1579 1579 1578 1577 1577 1577 1578 1578 1578 1579 1579 1579 1580 1580 1580 1580 1580 1580 1579 1579 1579 1579 1579 1579 1578 1578 1577 1577 1577 1576 1576 1575 1575 1574 1573 1573 1572 1571 1570 1569 1568 1567 1566 1565 1564 1562 1561 1560 1559 1557 1556 1554 1553 1552 1550 1549 1548 1546 1544 1542 1540 1538 1537 1535
1577 1577 1578 1579 1579 1580 1580 1580 1581 1581 1581 1581 1581 1581 1581 1581 1581 1581 1580 1580 1580 1579 1579 1579 1578 1578 1578 1578 1579 1579 1580 1580 1581 1581 1581 1581 1581 1581 1580 1580 1580 1580 1579 1579 1579 1579 1578 1578 1577 1577 1576 1576 1575 1575 1574 1573 1572 1571 1570 1569 1568 1567 1566 1565 1564 1563 1562 1560 1559 1557 1556 1554 1553 1552 1550 1549 1548 1546 1544 1542 1540 1538 1536 1534 1533
1577 1578 1579 1580 1580 1580 1580 1581 1581 1581 1581 1582 1582 1582 1582 1582 1582 1581 1581 1580 1580 1580 1580 1579 1579 1579 1579 1579 1580 1580 1581 1581 1582 1582 1582 1582 1581 1581 1581 1581 1580 1580 1580 1579 1579 1579 1578 1578 1577 1577 1577 1576 1575 1574 1574 1573 1572 1571 1569 1568 1568 1567 1566 1564 1563 1562 1561 1559 1558 1556 1555 1553 1552 1550 1549 1547 1546 1544 1542 1540 1538 1535 1534 1532 1530
1578 1579 1579 1580 1580 1581 1581 1581 1581 1582 1582 1582 1582 1582 1582 1582 1582 1582 1581 1581 1580 1580 1580 1580 1579 1580 1580 1581 1581 1581 1582 1582 1582 1582 1582 1582 1582 1582 1581 1581 1581 1580 1580 1580 1579 1579 1578 1578 1577 1577 1576 1576 1575 1574 1573 1572 1571 1570 1569 1568 1567 1566 1565 1563 1562 1561 1560 1558 1557 1555 1554 1552 1551 1549 1547 1546 1544 1542 1540 1537 1535 1533 1531 1530 1529
1579 1579 1580 1580 1581 1581 1581 1581 1582 1582 1582 1582 1582 1582 1583 1583 1583 1583 1582 1581 1580 1580 1580 1580 1580 1581 1581 1581 1582 1582 1582 1582 1582 1582 1582 1582 1582 1582 1581 1581 1581 1581 1580 1580 1579 1579 1578 1577 1577 1576 1576 1575 1574 1574 1573 1572 1570 1569 1568 1567 1566 1565 1564 1563 1561 1560 1559 1557 1556 1554 1553 1551 1549 1547 1545 1543 1542 1539 1537 1535 1533 1531 1530 1528 1527
1579 1580 1580 1581 1581 1581 1581 1581 1582 1582 1582 1582 1582 1583 1583 1583 1583 1583 1582 1581 1581 1581 1581 1581 1581 1582 1582 1582 1582 1582 1582 1582 1582 1582 1582 1582 1582 1582 1581 1581 1581 1580 1580 1579 1579 1578 1578 1577 1576 1576 1575 1574 1574 1573 1572 1571 1570 1569 1567 1566 1565 1564 1563 1562 1561 1559 1558 1556 1554 1553 1551 1550 1547 1545 1543 1541 1539 1537 1535 1533 1531 1529 1528 1527 1526
1580 1580 1581 1581 1581 1581 1581 1582 1582 1582 1582 1582 1583 1583 1583 1583 1583 1583 1583 1582 1581 1581 1581 1581 1582 1582 1582 1582 1582 1582 1582 1582 1582 1582 1582 1582 1582 1582 1581 1581 1580 1580 1579 1579 1578 1578 1577 1576 1576 1575 1574 1573 1572 1571 1571 1570 1569 1568 1567 1566 1564 1564 1562 1561 1560 1559 1557 1555 1553 1552 1550 1548 1546 1544 1542 1539 1537 1535 1533 1532 1530 1528 1527 1526 1524
1580 1580 1581 1581 1581 1581 1582 1582 1582 1582 1583 1583 1583 1583 1583 1583 1583 1583 1583 1582 1582 1582 1581 1582 1582 1582 1582 1582 1582 1583 1582 1582 1583 1582 1582 1582 1582 1581 1581 1580 1580 1579 1578 1578 1577 1577 1576 1576 1575 1574 1573 1572 1571 1570 1570 1569 1568 1567 1566 1565 1564 1563 1562 1561 1560 1558 1556 1554 1552 1551 1549 1546 1544 1542 1540 1537 1535 1533 1532 1531 1529 1527 1526 1524 1522
1580 1581 1581 1581 1581 1582 1582 1582 1583 1583 1583 1583 1583 1583 1583 1583 1584 1583 1583 1583 1582 1582 1582 1582 1582 1582 1582 1582 1582 1583 1582 1583 1582 1582 1582 1582 1581 1581 1580 1579 1579 1578 1577 1577 1576 1576 1575 1575 1574 1573 1572 1571 1570 1569 1569 1568 1568 1567 1566 1565 1564 1562 1561 1560 1559 1557 1555 1553 1551 1549 1547 1545 1542 1540 1538 1536 1534 1533 1532 1530 1528 1526 1524 1523 1521
1580 1580 1581 1581 1582 1582 1583 1583 1583 1583 1583 1584 1584 1584 1584 1584 1584 1583 1583 1583 1583 1582 1582 1582 1582 1582 1582 1583 1583 1582 1582 1582 1582 1582 1581 1581 1581 1580 1579 1579 1578 1577 1576 1576 1576 1575 1574 1574 1573 1572 1571 1570 1569 1569 1568 1568 1567 1566 1565 1564 1563 1562 1561 1559 1558 1557 1555 1553 1550 1548 1546 1543 1541 1539 1537 1535 1534 1533 1532 1530 1528 1525 1523 1521 1520
1580 1580 1581 1581 1582 1582 1583 1583 1583 1584 1584 1584 1584 1584 1583 1584 1583 1583 1583 1583 1583 1583 1583 1582 1582 1583 1583 1583 1583 1582 1582 1582 1582 1581 1581 1581 1580 1580 1579 1578 1577 1576 1576 1575 1575 1574 1573 1573 1572 1571 1570 1569 1568 1568 1567 1567 1566 1566 1565 1564 1563 1561 1560 1559 1558 1556 1554 1552 1550 1547 1545 1542 1540 1538 1536 1535 1534 1533 1532 1530 1527 1524 1522 1520 1518
1580 1580 1581 1581 1582 1583 1583 1583 1584 1584 1584 1584 1584 1584 1584 1584 1584 1584 1584 1583 1583 1583 1583 1583 1582 1582 1582 1582 1582 1582 1582 1582 1582 1581 1581 1581 1580 1579 1579 1578 1577 1577 1576 1575 1574 1574 1573 1572 1571 1570 1569 1568 1567 1567 1566 1566 1565 1565 1564 1563 1562 1561 1559 1559 1557 1555 1553 1551 1549 1546 1544 1542 1540 1538 1536 1535 1534 1533 1532 1529 1527 1524 1522 1520 1517
1579 1580 1581 1581 1582 1583 1583 1584 1584 1584 1584 1584 1584 1584 1584 1584 1584 1584 1584 1583 1583 1583 1583 1583 1583 1582 1582 1582 1582 1582 1582 1582 1582 1581 1581 1580 1580 1579 1578 1577 1577 1576 1575 1574 1573 1573 1572 1571 1570 1569 1568 1567 1567 1566 1566 1565 1565 1564 1563 1562 1561 1560 1559 1558 1556 1555 1552 1551 1548 1546 1544 1542 1540 1538 1536 1535 1534 1533 1531 1529 1527 1524 1522 1519 1517
1579 1580 1580 1581 1582 1582 1583 1583 1584 1584 1584 1584 1584 1584 1584 1584 1584 1584 1584 1583 1583 1583 1583 1583 1583 1582 1582 1582 1582 1582 1581 1581 1581 1581 1581 1580 1579 1579 1578 1577 1576 1575 1575 1574 1573 1572 1571 1570 1569 1568 1567 1567 1566 1566 1565 1565 1564 1563 1562 1561 1560 1559 1558 1557 1556 1554 1552 1550 1548 1546 1543 1541 1540 1538 1537 1536 1534 1532 1531 1529 1527 1524 1522 1519 1517
1579 1580 1580 1581 1581 1582 1583 1583 1584 1584 1584 1584 1584 1584 1584 1584 1584 1584 1584 1584 1584 1584 1583 1583 1583 1583 1582 1582 1582 1582 1581 1581 1580 1580 1580 1579 1579 1578 1577 1576 1576 1575 1574 1573 1572 1571 1570 1569 1567 1567 1566 1566 1566 1565 1564 1564 1563 1563 1562 1560 1559 1559 1558 1557 1555 1553 1552 1550 1548 1546 1543 1541 1540 1538 1537 1536 1534 1532 1531 1529 1527 1525 1522 1519 1517
1578 1579 1580 1580 1581 1581 1582 1582 1583 1583 1583 1583 1584 1584 1584 1584 1584 1584 1584 1584 1584 1584 1583 1583 1583 1583 1583 1582 1582 1582 1581 1581 1580 1579 1579 1579 1578 1577 1577 1576 1575 1575 1574 1573 1571 1570 1569 1568 1567 1566 1566 1566 1565 1565 1564 1563 1563 1562 1561 1560 1559 1558 1557 1556 1554 1553 1552 1550 1548 1546 1543 1541 1540 1538 1537 1536 1534 1532 1530 1529 1527 1525 1523 1520 1518
1578 1579 1579 1580 1580 1581 1581 1582 1582 1582 1583 1583 1583 1583 1584 1584 1584 1584 1584 1584 1584 1584 1584 1583 1583 1583 1583 1582 1582 1582 1581 1581 1580 1579 1578 1578 1577 1577 1576 1575 1575 1574 1573 1572 1571 1569 1568 1567 1566 1566 1565 1565 1565 1564 1563 1563 1562 1561 1560 1559 1558 1558 1557 1555 1554 1553 1551 1550 1548 1546 1544 1541 1539 1538 1536 1535 1534 1532 1530 1529 1527 1525 1523 1521 1518
1577 1578 1579 1579 1580 1580 1581 1581 1581 1582 1582 1582 1583 1583 1583 1583 1584 1584 1584 1584 1584 1584 1584 1583 1583 1583 1582 1582 1582 1581 1581 1580 1580 1579 1578 1577 1576 1576 1575 1575 1574 1573 1572 1571 1570 1569 1567 1566 1566 1565 1565 1564 1564 1563 1563 1562 1562 1561 1559 1558 1558 1557 1556 1555 1553 1552 1551 1550 1548 1546 1544 1542 1539 1538 1536 1535 1534 1532 1530 1529 1527 1525 1523 1522 1519
1577 1577 1578 1579 1579 1580 1580 1580 1581 1581 1582 1582 1582 1583 1583 1583 1583 1583 1583 1583 1583 1583 1583 1583 1583 1583 1582 1582 1581 1581 1581 1580 1580 1579 1579 1577 1576 1575 1574 1573 1573 1572 1571 1570 1569 1568 1566 1565 1565 1564 1564 1564 1563 1563 1562 1562 1561 1560 1558 1558 1557 1557 1555 1554 1553 1552 1551 1549 1548 1546 1544 1542 1539 1538 1536 1535 1533 1532 1531 1529 1527 1525 1524 1522 1520
1576 1577 1577 1578 1579 1579 1579 1580 1580 1581 1581 1581 1582 1582 1583 1583 1583 1583 1583 1583 1583 1583 1583 1582 1582 1582 1582 1582 1581 1581 1580 1580 1580 1579 1579 1578 1577 1575 1574 1573 1572 1571 1571 1570 1569 1567 1566 1565 1564 1564 1564 1563 1563 1562 1562 1561 1560 1559 1557 1557 1557 1556 1555 1554 1552 1551 1550 1549 1547 1546 1544 1542 1539 1537 1536 1535 1533 1532 1531 1529 1528 1526 1524 1522 1521
1575 1576 1577 1577 1578 1578 1579 1579 1580 1580 1580 1581 1581 1582 1582 1582 1582 1582 1582 1582 1583 1582 1582 1582 1582 1582 1582 1581 1581 1581 1580 1580 1580 1579 1579 1578 1577 1575 1574 1573 1572 1570 1570 1569 1568 1567 1566 1565 1564 1564 1563 1563 1562 1562 1561 1560 1559 1557 1556 1556 1556 1555 1554 1553 1552 1551 1550 1549 1547 1545 1544 1541 1539 1537 1536 1535 1533 1532 1531 1530 1528 1526 1524 1523 1521
1574 1575 1576 1577 1577 1578 1578 1579 1579 1579 1580 1580 1581 1581 1582 1582 1582 1582 1582 1582 1582 1582 1582 1582 1582 1581 1581 1581 1581 1581 1580 1580 1579 1579 1578 1578 1576 1575 1574 1572 1571 1570 1569 1568 1568 1567 1566 1565 1564 1564 1563 1562 1562 1561 1560 1559 1558 1556 1556 1555 1555 1554 1553 1552 1551 1550 1549 1548 1546 1545 1543 1541 1539 1537 1535 1534 1533 1532 1531 1530 1528 1527 1525 1523 1522
1573 1574 1575 1576 1576 1577 1578 1578 1579 1579 1579 1580 1580 1581 1581 1581 1581 1581 1581 1582 1582 1582 1582 1581 1581 1581 1581 1581 1580 1580 1580 1579 1579 1578 1578 1577 1576 1575 1573 1572 1570 1569 1569 1568 1567 1566 1566 1565 1564 1563 1563 1562 1561 1560 1559 1558 1556 1555 1555 1555 1554 1553 1553 1552 1551 1550 1548 1547 1546 1544 1543 1541 1539 1537 1535 1534 1533 1532 1531 1530 1529 1527 1526 1524 1522
1573 1574 1574 1575 1576 1576 1577 1577 1578 1579 1579 1579 1580 1580 1580 1580 1581 1581 1581 1581 1581 1581 1581 1581 1581 1580 1580 1580 1580 1580 1579 1579 1578 1578 1577 1577 1576 1574 1573 1572 1570 1569 1568 1568 1567 1566 1565 1564 1563 1563 1562 1561 1561 1559 1558 1557 1555 1554 1554 1554 1553 1553 1552 1551 1550 1549 1548 1547 1545 1544 1542 1541 1539 1537 1535 1534 1533 1532 1531 1530 1529 1528 1527 1525 1523
1572 1573 1574 1574 1575 1575 1576 1577 1577 1578 1578 1579 1579 1579 1580 1580 1580 1580 1581 1581 1581 1581 1581 1580 1580 1580 1579 1579 1579 1579 1579 1578 1578 1577 1577 1576 1575 1574 1573 1571 1570 1569 1568 1567 1566 1566 1564 1563 1563 1562 1561 1561 1559 1558 1557 1556 1554 1554 1553 1553 1552 1552 1551 1550 1549 1548 1547 1546 1545 1544 1542 1540 1539 1537 1535 1534 1533 1532 1531 1531 1529 1528 1527 1526 1524
1572 1573 1573 1574 1574 1575 1575 1576 1577 1577 1578 1578 1578 1579 1579 1579 1579 1580 1580 1580 1580 1580 1580 1579 1579 1579 1579 1578 1578 1578 1578 1577 1577 1577 1576 1575 1575 1574 1573 1572 1570 1568 1567 1565 1565 1564 1564 1563 1562 1561 1561 1560 1558 1557 1556 1555 1554 1553 1553 1552 1551 1551 1550 1549 1549 1548 1546 1545 1544 1543 1542 1540 1539 1537 1535 1534 1533 1532 1531 1531 1530 1529 1528 1526 1525
1571 1572 1572 1573 1574 1574 1575 1576 1576 1577 1577 1577 1578 1578 1578 1578 1578 1579 1579 1579 1579 1579 1579 1578 1578 1578 1578 1577 1577 1577 1577 1576 1576 1576 1575 1575 1574 1573 1572 1571 1570 1568 1567 1565 1564 1563 1563 1562 1561 1561 1560 1559 1558 1557 1556 1554 1553 1552 1552 1551 1550 1550 1549 1549 1548 1547 1546 1545 1544 1543 1541 1540 1539 1537 1535 1534 1533 1532 1531 1531 1530 1529 1528 1527 1526
1570 1571 1572 1572 1573 1574 1574 1575 1576 1576 1577 1577 1577 1577 1578 1578 1577 1578 1578 1578 1578 1578 1577 1577 1577 1577 1577 1576 1576 1576 1576 1576 1575 1575 1574 1573 1573 1572 1571 1570 1569 1568 1567 1565 1563 1563 1563 1562 1561 1560 1559 1558 1557 1556 1555 1554 1553 1552 1551 1550 1549 1549 1548 1548 1547 1546 1545 1544 1543 1542 1541 1540 1539 1537 1536 1534 1533 1532 1531 1530 1530 1529 1528 1527 1526
1569 1569 1570 1571 1572 1573 1574 1574 1575 1576 1576 1576 1577 1577 1577 1577 1577 1577 1577 1577 1577 1577 1576 1576 1576 1576 1576 1575 1575 1575 1575 1574 1574 1574 1573 1572 1571 1570 1569 1569 1568 1568 1567 1565 1563 1562 1562 1561 1560 1560 1558 1558 1557 1556 1555 1554 1553 1552 1551 1550 1549 1548 1547 1547 1546 1546 1545 1544 1543 1542 1540 1539 1538 1537 1536 1534 1533 1532 1531 1530 1530 1529 1528 1528 1527
1568 1568 1569 1570 1571 1572 1573 1573 1574 1574 1575 1575 1575 1576 1576 1576 1576 1576 1576 1576 1576 1576 1575 1575 1575 1575 1575 1574 1574 1574 1573 1573 1573 1572 1572 1571 1570 1569 1569 1568 1568 1567 1566 1565 1563 1561 1561 1561 1560 1559 1558 1557 1557 1556 1554 1554 1553 1551 1550 1549 1548 1547 1547 1546 1546 1545 1544 1543 1542 1541 1540 1539 1538 1537 1536 1534 1533 1532 1530 1530 1529 1529 1528 1528 1527
1566 1567 1568 1569 1570 1570 1571 1571 1571 1572 1572 1572 1573 1573 1573 1574 1574 1574 1575 1575 1574 1574 1574 1574 1574 1573 1573 1573 1573 1573 1572 1572 1571 1571 1570 1570 1569 1568 1568 1567 1567 1566 1565 1564 1563 1561 1560 1561 1560 1559 1558 1557 1556 1555 1554 1552 1552 1550 1549 1548 1547 1547 1546 1545 1545 1544 1543 1542 1541 1540 1539 1538 1537 1536 1535 1534 1533 1532 1531 1530 1529 1529 1528 1528 1527
1565 1566 1567 1567 1567 1567 1567 1567 1568 1568 1569 1570 1571 1571 1571 1572 1572 1572 1573 1573 1573 1573 1573 1573 1572 1572 1572 1572 1572 1571 1571 1570 1570 1569 1569 1568 1568 1567 1567 1567 1566 1565 1564 1563 1562 1561 1560 1560 1559 1559 1558 1556 1555 1554 1553 1551 1550 1549 1548 1548 1547 1546 1545 1545 1544 1543 1542 1541 1540 1539 1538 1537 1536 1535 1535 1534 1533 1532 1531 1530 1529 1528 1528 1528 1527
1564 1564 1564 1564 1564 1565 1566 1567 1567 1567 1568 1568 1569 1570 1570 1570 1570 1570 1570 1571 1572 1572 1572 1571 1571 1571 1570 1570 1570 1570 1569 1569 1569 1568 1568 1567 1567 1567 1566 1566 1565 1564 1564 1563 1562 1560 1559 1558 1558 1558 1557 1556 1555 1554 1552 1551 1550 1549 1548 1547 1546 1545 1544 1544 1543 1542 1541 1540 1539 1538 1537 1536 1535 1535 1534 1533 1533 1532 1531 1530 1529 1528 1528 1527 1527
1562 1562 1561 1562 1564 1565 1566 1566 1566 1566 1566 1566 1567 1568 1568 1569 1569 1569 1569 1569 1570 1570 1570 1570 1570 1570 1569 1569 1569 1568 1568 1568 1567 1567 1567 1566 1566 1565 1565 1564 1564 1563 1563 1562 1561 1560 1558 1557 1557 1556 1555 1554 1554 1553 1552 1550 1550 1549 1548 1547 1545 1544 1544 1543 1542 1541 1540 1539 1538 1537 1536 1535 1535 1534 1533 1533 1532 1531 1531 1530 1529 1528 1527 1527 1526
1560 1559 1559 1561 1563 1564 1564 1564 1564 1564 1564 1565 1565 1566 1567 1567 1568 1568 1568 1567 1568 1568 1568 1569 1569 1568 1568 1567 1567 1567 1567 1567 1566 1566 1565 1565 1565 1564 1564 1563 1563 1562 1562 1561 1560 1559 1558 1556 1555 1555 1554 1553 1552 1552 1551 1549 1548 1548 1547 1546 1545 1544 1543 1542 1541 1539 1538 1537 1537 1536 1535 1534 1534 1533 1532 1532 1531 1531 1530 1530 1529 1528 1527 1526 1526
1558 1557 1558 1560 1560 1561 1562 1562 1562 1562 1562 1563 1563 1564 1564 1565 1565 1566 1566 1566 1566 1566 1566 1567 1567 1567 1566 1566 1566 1566 1565 1565 1565 1565 1564 1564 1564 1563 1562 1562 1561 1561 1560 1560 1559 1558 1557 1556 1554 1553 1553 1552 1551 1550 1550 1548 1547 1546 1545 1544 1544 1543 1542 1540 1539 1538 1537 1536 1535 1534 1533 1533 1532 1532 1531 1531 1530 1530 1529 1529 1528 1528 1527 1526 1525
1556 1556 1556 1557 1558 1559 1560 1560 1560 1561 1560 1561 1561 1562 1563 1563 1563 1564 1564 1564 1565 1565 1565 1565 1565 1565 1565 1565 1565 1564 1564 1564 1564 1564 1563 1563 1563 1562 1561 1560 1560 1559 1558 1558 1557 1556 1555 1554 1553 1552 1551 1550 1549 1548 1548 1547 1546 1545 1543 1541 1541 1541 1540 1539 1538 1537 1536 1535 1534 1533 1532 1531 1531 1530 1530 1530 1529 1529 1528 1528 1527 1527 1526 1525 1524
1553 1554 1554 1555 1556 1557 1558 1558 1559 1559 1559 1559 1560 1560 1561 1561 1561 1561 1562 1562 1563 1563 1563 1563 1563 1564 1563 1564 1563 1563 1563 1563 1563 1563 1562 1562 1561 1560 1560 1559 1558 1557 1556 1556 1555 1555 1554 1552 1551 1550 1549 1548 1547 1546 1546 1545 1544 1543 1542 1540 1539 1538 1538 1537 1536 1535 1534 1533 1532 1532 1531 1530 1530 1529 1529 1528 1528 1527 1527 1527 1526 1526 1525 1525 1524
1551 1552 1553 1554 1554 1555 1556 1556 1557 1557 1557 1557 1558 1558 1559 1559 1559 1560 1560 1560 1561 1561 1561 1561 1562 1562 1562 1562 1562 1562 1562 1562 1562 1561 1561 1561 1560 1559 1558 1557 1556 1555 1554 1554 1553 1552 1552 1550 1549 1549 1547 1546 1545 1544 1543 1542 1541 1540 1540 1539 1537 1536 1535 1534 1534 1534 1532 1531 1530 1530 1530 1529 1528 1528 1527 1527 1526 1526 1525 1525 1525 1524 1524 1523 1523
1549 1550 1551 1552 1552 1553 1554 1555 1555 1555 1555 1556 1556 1557 1557 1557 1558 1558 1558 1558 1558 1559 1559 1560 1560 1560 1560 1560 1560 1560 1560 1560 1560 1560 1559 1559 1558 1558 1557 1556 1555 1554 1553 1552 1551 1550 1549 1548 1547 1547 1545 1545 1544 1543 1542 1541 1540 1538 1537 1536 1535 1534 1533 1531 1530 1531 1531 1529 1528 1527 1528 1527 1526 1525 1525 1524 1524 1524 1524 1524 1523 1523 1522 1522 1522
1547 1548 1549 1549 1550 1552 1552 1553 1553 1553 1554 1554 1555 1555 1555 1555 1556 1556 1556 1556 1556 1556 1557 1558 1558 1557 1557 1558 1558 1558 1558 1558 1558 1558 1558 1558 1557 1556 1556 1554 1553 1552 1551 1550 1549 1548 1547 1546 1545 1545 1544 1543 1542 1541 1540 1539 1537 1536 1535 1534 1533 1531 1530 1529 1527 1527 1528 1528 1526 1525 1525 1525 1524 1523 1523 1522 1522 1522 1522 1522 1521 1521 1521 1521 1520
1545 1546 1546 1547 1548 1550 1550 1551 1551 1552 1552 1553 1553 1554 1554 1554 1554 1554 1553 1554 1553 1554 1555 1555 1556 1555 1556 1556 1556 1557 1557 1557 1557 1557 1556 1556 1555 1555 1554 1553 1552 1551 1550 1549 1548 1546 1546 1544 1543 1543 1541 1540 1540 1539 1538 1536 1535 1534 1533 1532 1531 1530 1529 1528 1526 1525 1526 1525 1523 1522 1522 1522 1522 1521 1520 1520 1520 1520 1519 1519 1519 1519 1519 1519 1519
1543 1544 1544 1545 1546 1548 1548 1549 1550 1550 1551 1551 1551 1552 1552 1552 1552 1552 1551 1551 1551 1552 1553 1553 1554 1554 1554 1555 1556 1556 1556 1555 1555 1555 1555 1554 1554 1553 1553 1552 1551 1549 1548 1548 1547 1545 1544 1543 1542 1542 1540 1539 1538 1537 1536 1534 1533 1531 1530 1530 1529 1528 1527 1526 1525 1524 1524 1523 1521 1519 1518 1519 1519 1518 1517 1517 1517 1517 1516 1516 1516 1517 1517 1517 1517
1540 1541 1542 1543 1544 1546 1546 1547 1548 1548 1549 1549 1549 1550 1550 1550 1550 1550 1549 1549 1549 1550 1551 1551 1552 1553 1553 1554 1555 1555 1555 1554 1554 1553 1553 1552 1552 1552 1551 1550 1549 1548 1548 1547 1546 1545 1544 1543 1542 1541 1540 1538 1537 1535 1534 1533 1531 1530 1529 1528 1527 1526 1525 1524 1523 1522 1522 1521 1520 1517 1516 1516 1517 1515 1514 1514 1514 1513 1513 1513 1514 1514 1515 1515 1515
1537 1538 1539 1541 1542 1543 1544 1545 1546 1546 1547 1547 1547 1548 1548 1549 1549 1548 1547 1547 1546 1547 1548 1549 1550 1552 1552 1553 1553 1553 1553 1553 1553 1552 1551 1551 1550 1550 1549 1549 1548 1548 1547 1546 1545 1545 1544 1543 1542 1541 1540 1538 1537 1535 1534 1532 1530 1529 1529 1528 1527 1526 1524 1523 1522 1522 1521 1520 1519 1517 1515 1515 1515 1513 1511 1511 1511 1509 1509 1509 1511 1512 1513 1513 1513
1533 1535 1537 1538 1539 1541 1542 1543 1544 1544 1545 1545 1545 1546 1546 1547 1547 1547 1546 1545 1545 1545 1546 1547 1548 1550 1551 1551 1550 1551 1551 1552 1552 1551 1550 1550 1549 1549 1548 1548 1548 1547 1547 1546 1545 1544 1543 1543 1542 1541 1540 1539 1538 1536 1534 1532 1530 1530 1529 1528 1527 1526 1524 1523 1522 1521 1520 1519 1517 1516 1515 1514 1513 1511 1509 1509 1508 1507 1506 1507 1508 1510 1511 1512 1512
1531 1533 1535 1536 1537 1540 1541 1540 1541 1542 1542 1543 1544 1544 1545 1545 1545 1545 1545 1544 1544 1544 1545 1545 1546 1547 1549 1549 1549 1549 1550 1551 1550 1550 1549 1549 1548 1548 1548 1548 1548 1547 1547 1546 1545 1544 1544 1543 1542 1542 1541 1540 1538 1537 1535 1533 1531 1530 1529 1527 1527 1525 1524 1523 1521 1520 1520 1518 1517 1516 1514 1513 1512 1510 1508 1507 1507 1507 1506 1506 1507 1509 1510 1511 1512
1529 1531 1533 1533 1535 1537 1538 1538 1538 1540 1540 1542 1543 1543 1543 1543 1543 1543 1543 1542 1542 1543 1543 1543 1543 1545 1546 1547 1547 1547 1548 1549 1549 1549 1549 1549 1549 1548 1549 1549 1548 1548 1548 1547 1546 1545 1544 1544 1543 1542 1541 1540 1539 1537 1535 1534 1532 1530 1529 1528 1527 1526 1524 1523 1522 1521 1520 1518 1516 1515 1514 1513 1511 1510 1508 1507 1507 1507 1506 1506 1508 1509 1510 1510 1510
1527 1529 1530 1531 1532 1533 1534 1536 1537 1539 1539 1540 1541 1541 1541 1540 1539 1540 1541 1541 1541 1541 1540 1540 1540 1541 1542 1542 1543 1545 1546 1548 1548 1549 1549 1549 1549 1549 1549 1549 1549 1549 1548 1548 1547 1546 1545 1544 1543 1542 1541 1540 1539 1537 1536 1535 1533 1531 1530 1529 1528 1527 1525 1524 1523 1522 1520 1519 1518 1516 1514 1513 1512 1510 1509 1508 1507 1507 1507 1507 1508 1509 1509 1509 1509